Location: Unspecified
(0.0000°N, 0.0000°E)
Time: 17:24:52
(UTC+00:00)

STARS - Pass Details

Date: 10 December 2017
Orbit: 625 x 641 km, 98.3° (Epoch: 18 January)

Event Time Altitude Azimuth Distance (km) Brightness Sun altitude
Rises 04:38:31 0° 135° (SE) 2,943 ? -17.0°
Reaches altitude 10° 04:41:40 10° 110° (ESE) 2,030 ? -16.3°
Maximum altitude 04:44:03 14° 78° (ENE) 1,753 ? -15.8°
Drops below altitude 10° 04:46:24 10° 45° (NE) 2,022 ? -15.2°
Sets 04:49:31 0° 21° (NNE) 2,924 ? -14.5°
